Weather History for KIMM - April, 2014

Change the Weather History Date:

Monday, April 21, 2014

  Actual Average (KFMY) Record (KFMY)
Temperature  
Mean Temperature 68 °F 75 °F  
Max Temperature 82 °F 86 °F 95 °F (1944)
Min Temperature 53 °F 64 °F 48 °F (1953)
Degree Days  
Heating Degree Days 0 0  
Month to date heating degree days 0  
Since 1 July heating degree days 284  
Cooling Degree Days 2 10  
Month to date cooling degree days 174  
Year to date cooling degree days 535  
Growing Degree Days 18 (Base 50)    
Moisture  
Dew Point 62 °F    
Average Humidity 69    
Maximum Humidity 100    
Minimum Humidity 48    
Precipitation  
Precipitation 0.00 in 0.07 in 3.78 in (1949)
Month to date precipitation 1.56  
Year to date precipitation 8.53  
Sea Level Pressure  
Sea Level Pressure 30.03 in    
Wind  
Wind Speed 3 mph (NNW)    
Max Wind Speed 9 mph    
Max Gust Speed 17 mph    
Visibility 7 miles    
Events      
T = Trace of Precipitation, MM = Missing Value Source: NWS Daily Summary

Daily Weather History Graph

Daily Weather History Graph

Search for Another Location

Airport or City:

Trip Planner

Search our weather history database for the weather conditions in past years. The results will help you decide how hot, cold, wet, or windy it might be!

Date:

Astronomy

Apr. 21, 2014 Rise Set
Actual Time 6:56 AM EDT 7:52 PM EDT
Civil Twilight 6:32 AM EDT 8:16 PM EDT
Nautical Twilight 6:04 AM EDT 8:44 PM EDT
Astronomical Twilight 5:35 AM EDT 9:13 PM EDT
Moon 1:13 AM EDT (4/21) 12:28 PM EDT (4/21)
Length of Visible Light 13h 43m
Length of Day
12h 56m
Waning Gibbous, 58% of the Moon is Illuminated
Apr 21
Waning Gibbous
Apr 22
Last Quarter
Apr 29
New
May 6
First Quarter
May 14
Full

Hourly Weather History & Observations

Time (EDT) Temp. Heat Index Dew Point Humidity Pressure Visibility Wind Dir Wind Speed Gust Speed Precip Events Conditions
12:15 AM 60.8 °F - - N/A% 30.07 in 9.0 mi Calm Calm - 0.00 in   Clear
12:35 AM 60.8 °F - - N/A% 30.07 in 10.0 mi Calm Calm - 0.00 in   Clear
12:55 AM 60.8 °F - - N/A% 30.07 in 8.0 mi North 4.6 mph - 0.00 in   Clear
1:15 AM 60.8 °F - - N/A% 30.06 in 9.0 mi North 5.8 mph - 0.00 in   Clear
1:35 AM 59.0 °F - - N/A% 30.06 in 9.0 mi Calm Calm - 0.00 in   Clear
1:55 AM 57.2 °F - - N/A% 30.06 in 8.0 mi Calm Calm - 0.00 in   Clear
2:15 AM 57.2 °F - - N/A% 30.06 in 7.0 mi North 4.6 mph - 0.00 in   Clear
2:35 AM 57.2 °F - - N/A% 30.05 in 7.0 mi Calm Calm - 0.00 in   Clear
2:55 AM 57.2 °F - - N/A% 30.05 in 6.0 mi Calm Calm - 0.00 in   Clear
3:15 AM 57.2 °F - - N/A% 30.05 in 5.0 mi North 5.8 mph - 0.00 in   Clear
3:35 AM 57.2 °F - - N/A% 30.04 in 7.0 mi Calm Calm - 0.00 in   Clear
3:55 AM 57.2 °F - - N/A% 30.04 in 6.0 mi Calm Calm - 0.00 in   Clear
4:15 AM 57.2 °F - - N/A% 30.04 in 7.0 mi North 5.8 mph - 0.00 in   Clear
4:35 AM 55.4 °F - - N/A% 30.04 in 4.0 mi Calm Calm - 0.00 in   Clear
4:55 AM 55.4 °F - - N/A% 30.04 in 5.0 mi Calm Calm - 0.00 in   Clear
5:15 AM 55.4 °F - - N/A% 30.04 in 5.0 mi Calm Calm - 0.00 in   Clear
5:35 AM 55.4 °F - - N/A% 30.05 in 3.0 mi Calm Calm - 0.00 in   Clear
5:55 AM 53.6 °F - - N/A% 30.05 in 1.5 mi Calm Calm - 0.00 in   Clear
6:15 AM 53.6 °F - - N/A% 30.05 in 0.5 mi Calm Calm - 0.00 in   Unknown
6:35 AM 53.6 °F - - N/A% 30.05 in 0.5 mi Calm Calm - 0.00 in   Unknown
6:55 AM 53.6 °F - - N/A% 30.06 in 1.5 mi Calm Calm - 0.00 in   Clear
7:15 AM 53.6 °F - - N/A% 30.06 in 2.0 mi Calm Calm - 0.00 in   Clear
7:35 AM 53.6 °F - - N/A% 30.07 in 1.8 mi Calm Calm - 0.00 in   Clear
7:55 AM 57.2 °F - - N/A% 30.07 in 2.0 mi Calm Calm - 0.00 in   Clear
8:15 AM 59.0 °F - - N/A% 30.07 in 4.0 mi Calm Calm - 0.00 in   Clear
8:35 AM 60.8 °F - - N/A% 30.08 in 5.0 mi NNW 6.9 mph - 0.00 in   Clear
8:55 AM 64.4 °F - 64.4 °F 100% 30.08 in 9.0 mi NNW 8.1 mph - 0.00 in   Clear
9:15 AM 66.2 °F - 66.2 °F 100% 30.08 in 8.0 mi NNW 8.1 mph - 0.00 in   Clear
9:35 AM 69.8 °F - 64.4 °F 83% 30.08 in 9.0 mi North 5.8 mph - 0.00 in   Partly Cloudy
9:55 AM 68.0 °F - 64.4 °F 88% 30.08 in 8.0 mi North 9.2 mph - 0.00 in   Scattered Clouds
10:15 AM 71.6 °F - 64.4 °F 78% 30.08 in 9.0 mi NNW 8.1 mph - 0.00 in   Scattered Clouds
10:35 AM 69.8 °F - 64.4 °F 83% 30.09 in 9.0 mi NNW 3.5 mph - 0.00 in   Scattered Clouds
10:55 AM 71.6 °F - 62.6 °F 73% 30.08 in 9.0 mi NNW 5.8 mph - 0.00 in   Mostly Cloudy
11:15 AM 73.4 °F - 62.6 °F 69% 30.08 in 10.0 mi NW 3.5 mph - 0.00 in   Overcast
11:35 AM 73.4 °F - 62.6 °F 69% 30.07 in 9.0 mi NNW 5.8 mph - 0.00 in   Overcast
11:55 AM 73.4 °F - 62.6 °F 69% 30.07 in 9.0 mi NNW 3.5 mph - 0.00 in   Overcast
12:15 PM 75.2 °F - 60.8 °F 61% 30.06 in 8.0 mi NNW 6.9 mph - 0.00 in   Overcast
12:35 PM 75.2 °F - 60.8 °F 61% 30.06 in 8.0 mi NNW 8.1 mph - 0.00 in   Overcast
12:55 PM 77.0 °F - 60.8 °F 57% 30.05 in 10.0 mi NW 6.9 mph - 0.00 in   Mostly Cloudy
1:15 PM 78.8 °F - 60.8 °F 54% 30.04 in 8.0 mi NW 5.8 mph - 0.00 in   Scattered Clouds
1:35 PM 80.6 °F 81.5 °F 60.8 °F 51% 30.04 in 8.0 mi NW 8.1 mph - 0.00 in   Partly Cloudy
1:55 PM 80.6 °F 81.5 °F 60.8 °F 51% 30.03 in 9.0 mi NNE 8.1 mph - 0.00 in   Scattered Clouds
2:15 PM 80.6 °F 81.5 °F 60.8 °F 51% 30.02 in 8.0 mi WNW 5.8 mph - 0.00 in   Scattered Clouds
2:35 PM 80.6 °F 81.5 °F 60.8 °F 51% 30.01 in 10.0 mi NW 6.9 mph - 0.00 in   Scattered Clouds
2:55 PM 80.6 °F 81.5 °F 60.8 °F 51% 30.00 in 8.0 mi NNW 4.6 mph - 0.00 in   Scattered Clouds
3:15 PM 80.6 °F 81.5 °F 60.8 °F 51% 29.99 in 8.0 mi NW 4.6 mph - 0.00 in   Scattered Clouds
3:35 PM 82.4 °F 82.9 °F 60.8 °F 48% 29.98 in 8.0 mi NW 5.8 mph - 0.00 in   Partly Cloudy
4:15 PM 82.4 °F 82.9 °F 60.8 °F 48% 29.97 in 5.0 mi North 5.8 mph - 0.00 in   Partly Cloudy
4:35 PM 82.4 °F 82.9 °F 60.8 °F 48% 29.96 in 5.0 mi NNW 8.1 mph - 0.00 in   Clear
4:55 PM 82.4 °F 82.9 °F 60.8 °F 48% 29.95 in 5.0 mi NNW 8.1 mph - 0.00 in   Clear
5:15 PM 80.6 °F 81.5 °F 60.8 °F 51% 29.95 in 5.0 mi North 8.1 mph - 0.00 in   Partly Cloudy
5:35 PM 82.4 °F 82.9 °F 60.8 °F 48% 29.95 in 8.0 mi NNW 6.9 mph - 0.00 in   Clear
5:55 PM 82.4 °F 82.9 °F 60.8 °F 48% 29.95 in 8.0 mi NNW 6.9 mph - 0.00 in   Partly Cloudy
6:15 PM 80.6 °F 81.5 °F 60.8 °F 51% 29.95 in 8.0 mi North 8.1 mph - 0.00 in   Scattered Clouds
6:35 PM 80.6 °F 81.5 °F 60.8 °F 51% 29.95 in 9.0 mi North 9.2 mph 17.3 mph 0.00 in   Clear
6:55 PM 78.8 °F - 60.8 °F 54% 29.96 in 9.0 mi North 9.2 mph - 0.00 in   Clear
7:15 PM 77.0 °F - 60.8 °F 57% 29.96 in 9.0 mi North 8.1 mph - 0.00 in   Clear
7:35 PM 75.2 °F - 60.8 °F 61% 29.96 in 8.0 mi North 6.9 mph - 0.00 in   Clear
7:55 PM 73.4 °F - 62.6 °F 69% 29.96 in 8.0 mi North 4.6 mph - 0.00 in   Clear
8:15 PM 71.6 °F - 64.4 °F 78% 29.97 in 10.0 mi North 5.8 mph - 0.00 in   Clear
8:35 PM 69.8 °F - 64.4 °F 83% 29.97 in 10.0 mi Calm Calm - 0.00 in   Clear
8:55 PM 68.0 °F - 66.2 °F 94% 29.98 in 9.0 mi Calm Calm - 0.00 in   Clear
9:15 PM 66.2 °F - 66.2 °F 100% 29.99 in 7.0 mi North 4.6 mph - 0.00 in   Clear
9:35 PM 66.2 °F - 66.2 °F 100% 29.99 in 9.0 mi North 4.6 mph - 0.00 in   Clear
9:55 PM 64.4 °F - 64.4 °F 100% 29.99 in 10.0 mi NNW 4.6 mph - 0.00 in   Clear
10:15 PM 64.4 °F - 64.4 °F 100% 30.00 in 9.0 mi Calm Calm - 0.00 in   Clear
10:35 PM 62.6 °F - 62.6 °F 100% 30.01 in 10.0 mi NNW 3.5 mph - 0.00 in   Clear
11:15 PM 62.6 °F - 62.6 °F 100% 30.01 in 10.0 mi Calm Calm - 0.00 in   Clear
11:55 PM 60.8 °F - - N/A% 30.01 in 8.0 mi Calm Calm - 0.00 in   Clear